Regional Weather Roundup
Issued by NWS

Home | Current Version | Previous Version | Graphics & Text | Print | Product List | Glossary On
Versions: 1 2 3 4 5 6 7 8 9 10 11 12 13 14 15 16 17 18 19 20 21 22 23 24 25 26 27 28 29 30 31 32 33 34 35 36 37 38 39 40 41 42 43 44 45 46 47 48 49 50
000
ASUS43 KIND 281009
RWRIN

WEATHER ROUNDUP FOR INDIANA
NATIONAL WEATHER SERVICE INDIANAPOLIS IN
600 AM EDT TUE JUL 28 2015

NOTE: "FAIR" INDICATES FEW OR NO CLOUDS BELOW 12,000 FEET WITH NO
SIGNIFICANT WEATHER AND/OR OBSTRUCTIONS TO VISIBILITY.

* - STATION DOES NOT REPORT WEATHER SUCH AS PRECIPITATION OR FOG.

+ - STATION NOT QUALITY CONTROLLED BY THE NATIONAL WEATHER SERVICE.
    USE DATA WITH CAUTION...ESPECIALLY DEWPOINT AND RELATIVE
    HUMIDITY OBSERVATIONS.

INZ001>003-010>013-019-020-281100-
NORTHWEST INDIANA

CITY           SKY/WX    TMP DP  RH WIND       PRES   REMARKS
GARY /AIRPORT/ CLEAR     70  64  83 SE7       29.99S
KNOX *+        CLEAR     63  63 100 NE3       29.99R
LA PORTE +     CLEAR     64  64 100 CALM      30.02R
MICHIGAN CITY+ CLEAR     63  63 100 CALM      30.01S
MONTICELLO +   PTCLDY    70  66  89 CALM      29.98R
RENSSELAER +   PTCLDY    68  66  94 NE5       29.99R
VALPARAISO     CLEAR     66  61  84 NE5       30.01R

$$

LMZ046-743>745-281100-
SOUTHERN LAKE MICHIGAN

STATION/POSITION TIME  TEMP    WIND        PRES    WAVE
                       AIR SEA DIR/SP/G            HT
                 (UTC) (F)     (DEG/KT/KT) (MB)    (FT)
BURNS HARBOR     0900   77     130/  8/ 14 1015.9F
MICHIGAN CITY    0900   72     110/  8/  9   N/A
5NW MICH CITY    1000   73 74  150/  8/ 10   N/A     1

$$

INZ004-005-014>016-021>024-281100-
NORTH CENTRAL INDIANA

CITY           SKY/WX    TMP DP  RH WIND       PRES   REMARKS
GOSHEN         CLEAR     63  60  90 CALM      30.02S
LOGANSPORT +   MOCLDY    68  61  77 E5        30.00R
PERU/GRISSOM   CLOUDY    72  66  82 E3        29.99S
ROCHESTER +    MOCLDY    70  66  88 CALM      30.01R
SOUTH BEND     CLEAR     66  62  87 CALM      30.02R
WARSAW +       CLEAR     64  61  88 CALM      30.02R

$$

INZ006>009-017-018-025>027-281100-
NORTHEAST INDIANA

CITY           SKY/WX    TMP DP  RH WIND       PRES   REMARKS
ANGOLA *+      CLEAR     61  48  63 CALM      30.03S
AUBURN +       CLEAR     64  59  82 E3        30.03S
FORT WAYNE     PTCLDY    67  62  84 NE6       30.01F
HUNTINGTON +   CLOUDY    69  64  84 NE3       30.01R

$$

INZ028-029-035-036-043>045-051>053-281100-
WEST CENTRAL INDIANA

CITY           SKY/WX    TMP DP  RH WIND       PRES   REMARKS
CRAWFORDSVL +  MOCLDY    70  70 100 E3          N/A  FOG
GREENCASTLE +  PTCLDY    70  66  88 CALM      29.98S FOG
LAFAYETTE      PTCLDY    70  67  90 NE5       29.97R
TERRE HAUTE    MOCLDY    74  72  93 SE3       29.95S

$$

INZ030>032-037>040-046>048-054>057-064-065-281100-
CENTRAL INDIANA

CITY           SKY/WX    TMP DP  RH WIND       PRES   REMARKS
FRANKFORT +    PTCLDY   N/A N/A N/A CALM      30.00S HAZE
INDIANAPOLIS   PTCLDY    74  70  87 E6        29.96F
-EAGLE CREEK   CLEAR     73  70  90 E3        29.97S
KOKOMO *+      CLOUDY    70  64  83 E3        30.00R
MARION +       CLOUDY    69  65  86 E3        30.01R
MT COMFORT *+    N/A     68 N/A N/A CALM      29.99S
SHELBYVILLE    PTCLDY    71  68  90 E5        29.97S FOG
ZIONSVILLE +     N/A     70  67  91 CALM      29.99S FOG

$$

INZ033-034-041-042-049-050-058-059-281100-
EAST CENTRAL INDIANA

CITY           SKY/WX    TMP DP  RH WIND       PRES   REMARKS
MUNCIE         PTCLDY    68  66  93 E5        30.00R

$$

INZ060-061-067>069-081>083-085>088-281100-
SOUTHWEST INDIANA

CITY           SKY/WX    TMP DP  RH WIND       PRES   REMARKS
EVANSVILLE     PTCLDY    73  72  96 CALM      29.95S
HUNTINGBURG *+ PTCLDY    75  72  88 S5        29.95F
WASHINGTON +   PTCLDY    73  69  88 CALM      29.94S FOG

$$

INZ062-063-066-070>080-084-089>092-281100-
SOUTH CENTRAL AND SOUTHEAST INDIANA

CITY           SKY/WX    TMP DP  RH WIND       PRES   REMARKS
BLOOMINGTON    PTCLDY    70  69  97 CALM      29.96F
MADISON *+     PTCLDY    72  70  94 CALM      29.99S

$$




USA.gov is the U.S. government's official web portal to all federal, state and local government web resources and services.